Regional Weather Roundup
Issued by NWS New Orleans/Baton Rouge, LA

Home | Current Version | Previous Version | Graphics & Text | Print | Product List | Glossary Off
Versions: 1 2 3 4 5 6 7 8 9 10 11 12 13 14 15 16 17 18 19 20 21 22 23 24 25 26 27 28 29 30 31 32 33 34 35 36 37 38 39 40 41 42 43 44 45 46 47 48 49 50

070
ASUS44 KLIX 301823
RWRLIX
NEW ORLEANS REGIONAL WEATHER ROUNDUP
NATIONAL WEATHER SERVICE NEW ORLEANS LA
100 PM CDT THU OCT 30 2014

NOTE: "FAIR" INDICATES FEW OR NO CLOUDS BELOW 12,000 FEET WITH NO
      SIGNIFICANT WEATHER AND/OR OBSTRUCTIONS TO VISIBILITY.
      SKY/WX - SKY CONDITION AND SIGNIFICANT WEATHER.
      TMP - AIR TEMPERATURE.     DP    - DEWPOINT TEMPERATURE.
      RH  - RELATIVE HUMIDITY.   PRES  - PRESSURE.
      HI  - HEAT INDEX.          WCI   - WIND CHILL INDEX.

*  THESE STATIONS ARE NOT NWS OR FAA STATIONS AND ARE NOT UNDER
   NWS QUALITY CONTROL.

LAZ038-040-048-061>063-065>067-069-301900-
SOUTHEAST LOUISIANA

CITY           SKY/WX    TMP DP  RH WIND       PRES   REMARKS
N.O. AUDUBON     N/A    N/A N/A N/A MISG        N/A
6HR MIN TEMP:  62; 6HR MAX TEMP:  76;

N.O. INTL ARPT MOSUNNY   72  44  36 NE10      30.09F
6HR MIN TEMP:  63; 6HR MAX TEMP:  73;

N.O. LAKEFRONT SUNNY     71  44  37 NE10      30.10F
6HR MIN TEMP:  64; 6HR MAX TEMP:  72;

N.O. DOWNTOWN*   N/A     72  43  35 N8        30.08F
6HR MIN TEMP:  63; 6HR MAX TEMP:  72;

SLIDELL        SUNNY     72  42  34 NE8G17    30.08F
6HR MIN TEMP:  50; 6HR MAX TEMP:  73;

BATON ROUGE    SUNNY     71  40  32 NE10      30.11F
6HR MIN TEMP:  49; 6HR MAX TEMP:  72;

BOOTHVILLE     SUNNY     72  55  55 NE12G20   30.07F
6HR MIN TEMP:  68; 6HR MAX TEMP:  72;

BELLE CHASSE   SUNNY     74  44  34 NE12      30.08F
6HR MIN TEMP:  61; 6HR MAX TEMP:  74;

BOGALUSA*        N/A     73  32  22 E12G17    30.10F
6HR MIN TEMP:  48; 6HR MAX TEMP:  74;

NEW ROADS*       N/A     71  41  33 NE7       30.10F
6HR MIN TEMP:  48; 6HR MAX TEMP:  71;

GONZALES*        N/A     73  42  33 NE3       30.08F
6HR MIN TEMP:  53; 6HR MAX TEMP:  72;

HAMMOND*       SUNNY     73  36  25 NE9       30.11F
HOUMA*         SUNNY     73  46  38 NE15      30.08F
PORT FOURCHON* CLEAR     72  54  53 NE14      30.09F

$$

MSZ070-080>082-301900-
SOUTHERN MISSISSIPPI

CITY           SKY/WX    TMP DP  RH WIND       PRES   REMARKS
MCCOMB         SUNNY     70  36  28 VRB6      30.11F
6HR MIN TEMP:  50; 6HR MAX TEMP:  70;

GULFPORT       SUNNY     72  41  32 NE14      30.07F
6HR MIN TEMP:  55; 6HR MAX TEMP:  73;

BILOXI         SUNNY     72  45  38 N10       30.06F
6HR MIN TEMP:  56; 6HR MAX TEMP:  72;

PASCAGOULA     SUNNY     72  41  32 NE10G23   30.06F
6HR MIN TEMP:  53; 6HR MAX TEMP:  72;

STENNIS ARPT*  SUNNY     72  34  25 N10       30.08F

$$

COASTAL OBSERVATIONS
LAKE AND NEARSHORE STATIONS

STATION/POSITION TIME  TEMP    WIND        PRES    WAVE
                       AIR SEA DIR/SP/G            HT/PER
                 (UTC) (F)     (DEG/KT/KT) (MB)    (FT/S)
PASCAGOULA       1800   71      20/  8/ 15 1017.1
WAVELAND YACHT   1800   68      20/  9/ 15 1017.6
GRAND ISLE       1800   71 76   50/ 10/ 17 1018.6
SOUTHWEST PASS   1800   80 78              1017.8
NEW CANAL        1800   67 71   30/  8/ 10 1019.2
SHELL BEACH      1800   67 69   20/ 13/ 15 1018.5

OFFSHORE STATIONS

STATION/POSITION TIME  TEMP    WIND        PRES    WAVE
                       AIR SEA DIR/SP/G            HT/PER
                 (UTC) (F)     (DEG/KT/KT) (MB)    (FT/S)
64 S DAUPHIN ISL 1717   69 78   50/ 17/ 21 1017.6    4/ 5

$$




USA.gov is the U.S. government's official web portal to all federal, state and local government web resources and services.